Regional Weather Roundup
Issued by NWS Lake Charles, LA

Home | Current Version | Previous Version | Text Only | Print | Product List | Glossary On
Versions: 1 2 3 4 5 6 7 8 9 10 11 12 13 14 15 16 17 18 19 20 21 22 23 24 25 26 27
000
ASUS44 KLCH 280010
RWRLCH
REGIONAL WEATHER ROUNDUP
NATIONAL WEATHER SERVICE LAKE CHARLES LA
700 PM CDT FRI MAY 27 2016

Note: "fair" indicates few or no clouds below 12,000 feet with no
significant weather and/or obstructions to visibility.


ACROSS SOUTHEAST TEXAS

CITY           SKY/WX    TMP DP  RH WIND       PRES   REMARKS
BEAUMONT       TSTM      67  67 100 S5        29.85F
BEAUMONT CITY  NOT AVBL
ORANGE         TSTM      66  64  92 SE6       29.91F
JASPER         RAIN      65  64  96 S5        29.89F
$$

ACROSS CENTRAL LOUISIANA

CITY           SKY/WX    TMP DP  RH WIND       PRES   REMARKS
LEESVILLE      RAIN      67  65  96 NE7       29.91R FOG
FULLERTON      TSTM      68  65  90 CALM      29.90R
ALEXANDRIA INT HVY RAIN  67  65  93 N8        29.92R FOG
ESLER FIELD    HVY RAIN  69  66  90 NW8       29.96R FOG
DERIDDER       TSTM      67  66  96 CALM      29.91R
OAKDALE        TSTM      66  65  97 N6        29.93S
OPELOUSAS      MOCLDY    79  67  66 SE10G16   29.89R
$$

ACROSS SOUTHWEST AND SOUTH CENTRAL LOUISIANA

CITY           SKY/WX    TMP DP  RH WIND       PRES   REMARKS
SULPHUR        CLOUDY    67  67  98 CALM      29.93R THUNDER
LAKE CHARLES   TSTM      67  66  97 NW6       29.91S FOG
CHENNAULT INT  NOT AVBL
CAMERON PHI    FOG       68  66  94 N12       29.97R VSB 1/2
DEQUINCY       TSTM      66  66 100 CALM      29.90S
JENNINGS       CLOUDY    66  64  94 NW18G32   29.94R
LAFAYETTE      CLOUDY    81  68  64 S8G18     29.89R
NEW IBERIA     MOSUNNY   80  68  66 SE20G28   29.88S
ABBEVILLE      FAIR      79  71  76 SE12      29.88R
PATTERSON      PTSUNNY   79  68  69 SE9       29.91S
SALT POINT       N/A     80  70  71 VRB6G17   29.88F
$$

SELECTED SITES ACROSS THE REGION

CITY           SKY/WX    TMP DP  RH WIND       PRES   REMARKS
HOUSTON BUSH   TSTM      66  64  93 E15       29.78R
HOUSTON HOBBY  TSTM      66  65  96 SE7       29.79F FOG
GALVESTON      LGT RAIN  72  69  90 NE16      29.85R
COLLEGE STAT   CLOUDY    67  66  97 E6        29.73R
CONROE         CLOUDY    67  65  93 SE8       29.77R
HUNTSVILLE     CLOUDY    68  66  93 VRB3      29.74F
LUFKIN         CLOUDY    66  65  96 SE9G24    29.75F
SHREVEPORT     LGT RAIN  68  65  90 SE29G39   29.68F
MONROE         LGT RAIN  68  67  96 E3        29.90F
NATCHEZ MS     CLOUDY    79  66  65 S8        29.91R
BATON ROUGE    CLOUDY    81  62  52 SE16G24   29.89R
N.O. INTL ARPT CLOUDY    81  68  64 SE13      29.92S
SLIDELL        CLOUDY    81  69  67 SE9       29.93S
$$

MARINE REPORTS

STATION/POSITION TIME  SKY/WX   TEMP    WIND        PRES    VSBY
                                AIR SEA DIR/SP/G
                 (UTC)          (F)     (DEG/KT/KT) (MB)    (MI)
BUOY 30 S HIGH I 2350            73 81   20/ 17/ 25 1009.9R
WVE H/P(F/S)=  6/ 8

SEA RIM ST PARK  0000            66     280/  4/  5 1012.2F
PORT ARTHUR      2300                   330/  8/ 17 1012.9R
SABINE PASS N    2300                   320/ 18/ 31 1014.1R
TEXAS POINT      NOT AVBL
CALCASIEU PASS   2300                   170/ 17/ 19 1010.1R
LK CHARLES BEACH 2300                               1013.7R
MARSH ISLAND     2300            80                   N/A
FRESH WATER LOCK 2300                   130/ 16/ 21 1012.0F
AMERADA PASS     2300                   130/  7/ 10 1012.5F
$$




USA.gov is the U.S. government's official web portal to all federal, state and local government web resources and services.